Location: Beaurecueil
(43.5122°N, 5.5450°E)
Time: 20:47:03
(UTC+00:00)

CZ-2D R/B - Pass Details

Date: 18 September 2020
Orbit: 520 x 539 km, 97.4° (Epoch: 27 October)

Event Time Altitude Azimuth Distance (km) Brightness Sun altitude
Rises 18:13:54 0° 174° (S) 2,679 6.7 -6.6°
Reaches altitude 10° 18:16:02 10° 178° (S) 1,794 5.8 -7.0°
Maximum altitude 18:19:52 61° 259° (W) 616 3.9 -7.7°
Drops below altitude 10° 18:23:44 10° 341° (NNW) 1,809 6.4 -8.4°
Sets 18:25:53 0° 345° (NNW) 2,704 7.2 -8.8°
